Total_Precipitation_Accumulation
0.82 0.50 0.23 0.17 0.11 0.01 0.00 0.01 0.00 0.00 0.00 0.00 0.00 0.00 0.00 0.00 0.00 0.00 0.00 0.00 0.03 0.08 0.06 0.04 0.04 0.08 0.10 0.11 0.13 0.16 0.09 0.14 0.20 0.59 0.99 0.52 0.29 0.21 0.21 0.34 0.37 0.35 0.63
1.76 1.09 0.63 0.26 0.12 0.02 0.01 0.01 0.00 0.00 0.00 0.00 0.00 0.00 0.00 0.00 0.00 0.00 0.00 0.00 0.02 0.07 0.05 0.03 0.03 0.09 0.15 0.09 0.09 0.04 0.04 0.06 0.09 0.31 0.71 0.70 0.52 0.24 0.24 0.36 0.42 0.47 0.53
1.61 1.87 1.49 0.69 0.34 0.06 0.02 0.01 0.01 0.00 0.00 0.00 0.00 0.00 0.03 0.03 0.05 0.06 0.07 0.01 0.02 0.09 0.06 0.03 0.09 0.21 0.25 0.10 0.05 0.02 0.03 0.03 0.07 0.27 0.51 0.71 0.47 0.62 0.52 0.54 0.51 0.70 0.46
0.52 0.54 1.99 2.15 0.97 0.44 0.19 0.09 0.06 0.01 0.00 0.04 0.01 0.01 0.01 0.02 0.07 0.18 0.24 0.09 0.04 0.12 0.14 0.10 0.16 0.20 0.16 0.05 0.02 0.02 0.01 0.02 0.07 0.21 0.47 0.52 0.68 1.09 0.97 0.96 0.68 0.69 0.65
0.92 0.75 0.68 1.21 1.44 1.09 0.50 0.31 0.19 0.05 0.00 0.02 0.01 0.01 0.01 0.07 0.20 0.24 0.33 0.22 0.11 0.33 0.65 0.58 0.53 0.22 0.04 0.01 0.01 0.00 0.00 0.02 0.05 0.20 0.96 1.22 1.38 1.37 1.17 1.18 0.97 0.80 0.95
1.96 1.71 1.50 1.37 1.12 1.43 1.21 0.95 0.50 0.10 0.02 0.06 0.03 0.12 0.18 0.40 0.41 0.32 0.27 0.41 0.50 0.69 0.79 0.84 0.88 0.32 0.02 0.02 0.00 0.01 0.00 0.04 0.08 0.17 0.86 0.72 1.09 1.46 1.08 0.75 0.65 0.57 0.66
3.10 3.53 2.28 3.25 2.60 2.34 1.84 1.63 1.48 0.95 0.21 0.27 0.20 0.30 0.42 0.40 0.41 0.46 0.56 0.70 1.00 1.10 0.99 0.88 0.77 0.53 0.09 0.05 0.04 0.07 0.03 0.09 0.13 0.48 1.25 1.73 1.18 1.35 0.98 0.71 0.59 0.58 0.74
2.91 3.59 3.53 4.68 6.45 4.68 3.18 2.77 2.90 2.60 1.90 1.00 0.71 0.71 1.09 1.37 1.29 0.93 0.77 0.90 1.06 1.19 1.06 0.84 0.76 0.64 0.34 0.16 0.23 0.17 0.16 0.14 0.18 0.63 1.02 1.12 0.88 1.19 0.93 0.76 0.76 0.79 0.50
6.22 6.41 5.89 5.76 6.76 6.41 5.77 4.50 4.04 4.09 5.35 4.85 2.97 2.31 2.43 1.96 1.54 1.18 0.86 0.73 0.55 0.58 0.96 0.87 0.69 0.64 0.46 0.43 0.41 0.37 0.39 0.28 0.20 0.27 1.06 1.24 1.23 1.47 1.34 0.95 0.68 0.66 0.64
7.45 8.56 8.07 7.93 7.67 5.10 4.67 4.32 3.65 4.53 3.66 4.87 4.67 3.60 2.21 1.76 1.40 0.93 0.83 0.66 0.62 0.49 0.48 0.50 0.71 0.65 0.57 0.45 0.43 0.43 0.40 0.34 0.19 0.26 0.59 0.75 1.11 1.33 1.28 0.92 0.79 0.60 0.59
3.95 4.56 5.01 6.25 6.74 6.15 4.42 3.33 2.71 3.24 5.15 2.71 2.79 2.83 2.70 1.50 1.22 0.92 0.72 0.73 0.76 0.63 0.44 0.56 0.52 0.39 0.48 0.54 0.47 0.49 0.44 0.25 0.20 0.43 0.40 0.79 1.14 1.49 1.54 1.11 0.84 0.66 0.80
1.58 2.87 3.28 2.95 2.30 2.39 2.35 2.34 2.00 2.61 4.16 3.65 2.52 1.78 1.22 1.35 0.79 0.62 0.87 0.78 1.13 1.09 1.08 1.03 0.72 0.74 0.72 0.32 0.50 0.63 0.43 0.53 0.39 0.51 0.52 0.78 1.04 1.31 1.89 1.64 1.14 1.04 1.02
0.78 1.45 1.58 1.29 1.00 0.79 0.67 0.92 1.33 2.66 3.20 3.42 2.34 1.87 1.22 1.17 0.96 0.56 0.66 1.14 1.28 1.40 0.98 0.99 0.88 0.90 0.81 0.71 0.80 0.68 0.47 0.33 0.32 0.53 0.87 1.01 0.88 1.16 1.86 1.85 1.31 1.04 1.23
0.54 0.81 0.90 0.66 0.50 0.38 0.28 0.49 0.78 1.34 2.44 2.15 2.20 1.82 1.42 0.80 0.84 0.65 0.68 1.05 1.23 1.19 1.01 1.07 0.91 0.98 1.00 0.96 1.35 1.26 1.14 1.04 1.03 1.21 1.20 1.10 1.00 1.21 1.37 1.86 1.58 1.38 1.26
0.47 0.49 0.81 0.77 0.51 0.36 0.28 0.37 0.63 0.87 2.07 1.38 2.23 1.56 1.34 0.53 0.78 0.69 0.73 0.83 0.87 1.24 1.29 1.37 1.45 1.27 1.12 1.28 2.00 2.68 2.57 1.91 1.40 1.09 0.76 0.98 0.72 1.22 1.24 1.91 3.41 2.80 2.20
0.31 0.44 0.50 0.55 0.73 0.67 0.75 0.84 0.84 1.22 1.67 1.47 1.98 1.21 1.44 0.47 0.54 0.58 0.71 0.92 0.82 1.43 1.47 1.51 1.63 1.62 1.44 2.09 3.26 3.42 2.66 1.67 1.13 0.88 0.85 0.95 0.91 1.06 1.51 1.95 3.30 3.75 3.22
0.23 0.38 0.60 0.71 0.49 0.55 0.88 1.15 1.24 1.54 1.80 1.69 1.89 1.39 1.36 0.63 0.61 0.77 1.10 1.18 1.07 1.11 1.61 1.96 2.00 2.18 2.63 2.82 3.30 3.06 2.10 1.29 1.04 0.87 1.11 1.20 1.00 0.92 1.24 2.06 2.55 2.00 1.86
0.08 0.30 0.71 0.87 0.80 0.66 0.58 0.69 1.10 1.18 1.36 1.51 1.75 1.57 1.63 1.33 0.98 1.04 1.19 1.13 1.05 1.07 1.32 2.14 2.32 2.31 2.54 2.46 1.97 1.47 1.33 1.25 0.78 0.67 0.77 0.96 1.05 0.86 0.83 1.35 3.36 2.81 1.81
0.10 0.22 0.63 1.02 1.13 1.02 0.80 1.08 0.80 0.44 0.60 0.78 1.14 1.21 1.67 1.73 1.22 1.12 1.10 1.05 0.81 0.91 1.22 1.68 1.86 1.40 1.18 1.31 1.04 0.91 0.71 0.57 0.64 0.70 0.57 0.55 0.80 0.97 1.14 1.22 2.20 2.30 1.92
0.13 0.17 0.59 1.25 1.38 1.21 0.77 0.59 0.58 0.37 0.55 0.56 0.86 1.07 1.22 1.35 1.53 1.58 1.53 1.25 1.10 0.79 0.64 0.61 0.89 1.23 1.13 1.54 1.71 1.29 1.00 0.62 0.67 0.65 0.46 0.52 0.46 0.63 0.86 1.38 1.56 1.42 1.64
0.10 0.21 0.52 0.98 1.41 0.75 0.41 0.31 0.46 0.48 0.51 0.45 0.53 0.84 1.14 1.09 1.21 1.50 2.03 1.82 1.64 1.23 1.00 1.05 1.06 1.20 1.24 1.49 1.90 1.77 1.57 1.27 1.01 0.76 0.62 0.52 0.52 0.64 0.66 0.74 1.18 0.94 0.85
0.13 0.43 0.53 0.59 0.76 0.68 0.47 0.39 0.35 0.39 0.57 0.47 0.62 0.73 0.90 1.12 1.33 1.52 1.56 1.70 1.61 1.84 1.62 1.29 1.40 1.37 1.22 1.41 1.68 1.88 2.07 1.98 1.85 1.88 1.61 1.05 0.72 0.72 0.77 0.86 0.92 0.89 0.83
0.04 0.24 0.33 0.46 0.52 0.55 0.56 0.64 0.63 0.75 0.78 0.82 0.63 0.60 0.70 1.01 1.36 1.56 1.22 1.83 2.21 1.98 1.79 1.98 2.05 2.03 2.00 2.16 2.18 2.21 2.32 1.79 1.55 1.71 1.69 1.31 0.96 0.84 0.67 0.71 0.67 0.69 0.78
0.10 0.43 0.36 0.43 0.45 0.46 0.52 0.56 0.59 0.73 0.56 0.46 0.53 0.51 0.69 0.62 0.99 1.53 1.53 1.37 1.82 1.82 1.66 1.72 2.10 2.37 2.71 2.65 2.90 2.69 2.42 2.31 2.41 2.18 1.85 1.71 1.46 1.12 0.91 0.87 0.80 0.64 0.64
0.15 0.42 0.39 0.48 0.64 0.55 0.61 0.63 0.58 0.57 0.54 0.55 0.60 0.66 0.74 0.78 0.70 1.07 1.35 1.51 1.42 1.71 1.77 1.84 1.99 2.10 2.00 2.23 2.24 2.23 2.10 1.86 1.88 1.85 1.61 1.46 1.46 1.09 0.89 0.91 0.90 0.82 0.68
0.19 0.42 0.57 0.59 0.53 0.51 0.72 0.79 0.61 0.56 0.58 0.72 0.78 0.78 0.86 0.90 1.00 1.05 1.33 1.70 1.71 1.34 1.58 1.72 1.63 1.83 1.90 2.15 2.20 1.77 1.41 1.26 1.00 1.00 1.02 0.97 1.05 0.92 0.73 0.76 0.74 0.64 0.61